Flag for U.S.A. Weather past 2 weeks in Downey, California, U.S.A.

Now
75 °F

Sunny.


Feels Like: 77 °F
Forecast: 60 / 78 °F
Wind: 7 mph from North

Location: Long Beach Airport

Current Time: Oct 20, 2014 at 5:02:54 PM

Latest Report: Oct 20, 2014 at 3:53 PM


Visibility: 10 mi

Pressure: 29.86 "Hg

Humidity: 62%

Dew point: 61 °F

Location of DowneyLocation

Historic Weather in Downey — Graph

°F

Downey temperature yesterday

Maximum temperature yesterday: 77 °F (at 3:53 PM)
Minimum temperature yesterday: 60 °F (at 4:53 AM)
Average temperature yesterday: 68 °F

Past Weeks' High & Low Weather Summary

 TemperatureHumidityPressure
High90 °F (Oct 7, 12:53 PM)100% (Oct 6, 6:00 AM)30.02 "Hg (Oct 6, 6:00 AM)
Low60 °F (Oct 19, 4:53 AM)15% (Oct 7, 4:53 PM)29.78 "Hg (Oct 8, 4:53 PM)
Average70 °F72%29.91 "Hg
* Reported Oct 5 3:53 PM — Oct 20 3:53 PM, Downey, Weather by CustomWeather, © 2014

Note: Actual official high and low records may vary slightly from our data, if they occured in-between our weather recording intervals... More about our weather records

Advertising

Downey weather history for previous 24 hours

 ConditionsComfort  
Time TempWeatherWind HumidityBarometerVisibility
3:53 PM
Oct 20
75 °FSunny.7 mph62%29.86 "Hg10 mi
2:53 PM74 °FSunny.8 mph67%29.88 "Hg10 mi
1:53 PM73 °FPassing clouds.7 mph69%29.89 "Hg10 mi
12:53 PM74 °FScattered clouds.7 mph64%29.91 "Hg10 mi
11:53 AM72 °FPartly sunny.5 mph68%29.93 "Hg7 mi
10:53 AM71 °FOvercast.No wind71%29.95 "Hg7 mi
9:53 AM70 °FOvercast.3 mph73%29.95 "Hg8 mi
8:53 AM69 °FOvercast.3 mph79%29.94 "Hg8 mi
7:53 AM66 °FOvercast.No wind87%29.91 "Hg8 mi
6:53 AM65 °FOvercast.No wind91%29.90 "Hg10 mi
5:53 AM67 °FPassing clouds.No wind81%29.90 "Hg10 mi
4:53 AM67 °FOvercast.No wind85%29.88 "Hg10 mi
3:53 AM65 °FPassing clouds.No wind91%29.88 "Hg10 mi
2:53 AM65 °FClear.No wind91%29.88 "Hg10 mi
1:53 AM65 °FOvercast.No wind91%29.89 "Hg10 mi
12:53 AM65 °FClear.No wind91%29.89 "Hg10 mi
11:53 PM
Oct 19
67 °FPassing clouds.5 mph85%29.88 "Hg10 mi
10:53 PM68 °FClear.3 mph84%29.89 "Hg10 mi
9:53 PM68 °FClear.5 mph84%29.88 "Hg10 mi
7:53 PM69 °FClear.6 mph79%29.86 "Hg10 mi
6:53 PM70 °FSunny.8 mph76%29.84 "Hg10 mi
5:53 PM72 °FSunny.9 mph68%29.83 "Hg10 mi
Weather by CustomWeather, © 2014

See weather overviewHow to use our weather pages